Weather History for KRAP - September, 2012

Change the Weather History Date:

Thursday, September 27, 2012

  Actual Average Record
Temperature  
Mean Temperature 62 °F 56 °F  
Max Temperature 80 °F 70 °F 94 °F (1952)
Min Temperature 44 °F 41 °F 26 °F (1951)
Degree Days  
Heating Degree Days 3 10  
Month to date heating degree days 89 154  
Since 1 July heating degree days 94 191  
Cooling Degree Days 0 1  
Month to date cooling degree days 62 60  
Year to date cooling degree days 932 632  
Growing Degree Days 12 (Base 50)    
Moisture  
Dew Point 36 °F    
Average Humidity 42    
Maximum Humidity 65    
Minimum Humidity 19    
Precipitation  
Precipitation 0.00 in 0.04 in 0.78 in (1982)
Month to date precipitation 0.14 1.16  
Year to date precipitation 10.27 13.79  
Snow  
Snow 0.00 in 0.00 in - ()
Month to date snowfall 0.0 0.1  
Since 1 July snowfall 0.0 0.1  
Since 1 September snowfall 0.0 0.1  
Snow Depth 0.00 in    
Sea Level Pressure  
Sea Level Pressure 30.09 in    
Wind  
Wind Speed 6 mph (South)    
Max Wind Speed 20 mph    
Max Gust Speed 25 mph    
Visibility 10 miles    
Events      
T = Trace of Precipitation, MM = Missing Value Source: NWS Daily Summary

Daily Weather History Graph

Daily Weather History Graph

Search for Another Location

Airport or City:

Trip Planner

Search our weather history database for the weather conditions in past years. The results will help you decide how hot, cold, wet, or windy it might be!

Date:

Astronomy

Sep. 27, 2012 Rise Set
Actual Time 6:45 AM MDT 6:39 PM MDT
Civil Twilight 6:17 AM MDT 7:08 PM MDT
Nautical Twilight 5:43 AM MDT 7:41 PM MDT
Astronomical Twilight 5:09 AM MDT 8:15 PM MDT
Moon 5:14 PM MDT (9/27) 4:13 AM MDT (9/27)
Length of Visible Light 12h 51m
Length of Day
11h 53m
Waxing Gibbous, 94% of the Moon is Illuminated
Sep 27
Waxing Gibbous
Sep 29
Full
Oct 8
Last Quarter
Oct 15
New
Oct 21
First Quarter

Hourly Weather History & Observations

Time (MDT) Temp. Dew Point Humidity Pressure Visibility Wind Dir Wind Speed Gust Speed Precip Events Conditions
12:52 AM 52.0 °F 30.9 °F 45% 30.06 in 10.0 mi Calm Calm - N/A   Clear
1:52 AM 52.0 °F 30.9 °F 45% 30.06 in 10.0 mi ESE 5.8 mph - N/A   Clear
2:52 AM 48.9 °F 30.9 °F 50% 30.08 in 10.0 mi ESE 3.5 mph - N/A   Clear
3:52 AM 48.9 °F 32.0 °F 52% 30.08 in 10.0 mi Calm Calm - N/A   Clear
4:52 AM 48.0 °F 32.0 °F 54% 30.09 in 10.0 mi Calm Calm - N/A   Clear
5:52 AM 48.9 °F 36.0 °F 61% 30.09 in 10.0 mi Calm Calm - N/A   Clear
6:52 AM 46.9 °F 36.0 °F 66% 30.12 in 10.0 mi Calm Calm - N/A   Clear
7:52 AM 54.0 °F 39.0 °F 57% 30.13 in 10.0 mi Calm Calm - N/A   Clear
8:52 AM 64.0 °F 43.0 °F 46% 30.12 in 10.0 mi Calm Calm - N/A   Clear
9:52 AM 68.0 °F 45.0 °F 43% 30.12 in 10.0 mi SSW 4.6 mph - N/A   Clear
10:52 AM 77.0 °F 42.1 °F 29% 30.09 in 10.0 mi SSW 12.7 mph 17.3 mph N/A   Clear
11:52 AM 78.1 °F 37.0 °F 23% 30.09 in 10.0 mi South 15.0 mph - N/A   Clear
12:52 PM 78.1 °F 35.1 °F 21% 30.09 in 10.0 mi South 13.8 mph 18.4 mph N/A   Clear
1:52 PM 78.1 °F 33.1 °F 19% 30.07 in 10.0 mi South 9.2 mph 24.2 mph N/A   Partly Cloudy
2:52 PM 78.1 °F 35.1 °F 21% 30.06 in 10.0 mi South 11.5 mph 20.7 mph N/A   Partly Cloudy
3:52 PM 77.0 °F 34.0 °F 21% 30.06 in 10.0 mi South 11.5 mph 20.7 mph N/A   Clear
4:52 PM 77.0 °F 32.0 °F 19% 30.05 in 10.0 mi SSE 11.5 mph - N/A   Clear
5:52 PM 73.0 °F 34.0 °F 24% 30.06 in 10.0 mi South 13.8 mph - N/A   Clear
6:52 PM 66.0 °F 34.0 °F 30% 30.09 in 10.0 mi South 6.9 mph - N/A   Clear
7:52 PM 64.9 °F 37.9 °F 37% 30.11 in 10.0 mi SSW 8.1 mph - N/A   Clear
8:52 PM 59.0 °F 37.9 °F 46% 30.12 in 10.0 mi Calm Calm - N/A   Clear
9:52 PM 60.1 °F 37.9 °F 44% 30.11 in 10.0 mi SW 4.6 mph - N/A   Clear
10:52 PM 57.0 °F 37.9 °F 49% 30.11 in 10.0 mi Calm Calm - N/A   Clear
11:52 PM 53.1 °F 37.0 °F 55% 30.11 in 10.0 mi Calm Calm - N/A   Clear